Regional Weather Roundup
Issued by NWS New Orleans/Baton Rouge, LA

Home | Current Version | Previous Version | Text Only | Print | Product List | Glossary On
Versions: 1 2 3 4 5 6 7 8 9 10 11 12 13 14 15 16 17 18 19 20 21 22 23 24 25 26 27 28 29 30 31 32 33 34 35 36 37 38 39 40 41 42 43 44 45 46 47 48 49 50
620
ASUS44 KLIX 180512
RWRLIX
NEW ORLEANS REGIONAL WEATHER ROUNDUP
NATIONAL WEATHER SERVICE NEW ORLEANS LA
1200 AM CDT SAT APR 18 2015

NOTE: "FAIR" INDICATES FEW OR NO CLOUDS BELOW 12,000 FEET WITH NO
      SIGNIFICANT WEATHER AND/OR OBSTRUCTIONS TO VISIBILITY.
      SKY/WX - SKY CONDITION AND SIGNIFICANT WEATHER.
      TMP - AIR TEMPERATURE.     DP    - DEWPOINT TEMPERATURE.
      RH  - RELATIVE HUMIDITY.   PRES  - PRESSURE.
      HI  - HEAT INDEX.          WCI   - WIND CHILL INDEX.

*  THESE STATIONS ARE NOT NWS OR FAA STATIONS AND ARE NOT UNDER
   NWS QUALITY CONTROL.

LAZ038-040-048-061>063-065>067-069-180600-
SOUTHEAST LOUISIANA

CITY           SKY/WX    TMP DP  RH WIND       PRES   REMARKS
N.O. AUDUBON     N/A     73  73  99 MISG        N/A
N.O. INTL ARPT CLOUDY    75  70  84 CALM      29.93F
N.O. LAKEFRONT CLOUDY    77  70  79 CALM      29.94F
SLIDELL        MOCLDY    71  70  96 CALM      29.93F
BATON ROUGE    CLOUDY    72  68  87 NE6       29.90F
BOOTHVILLE     MOCLDY    71  68  90 CALM      29.94F
BELLE CHASSE   CLOUDY    70  68  93 NE3       29.92F
BOGALUSA*        N/A     70  66  88 CALM      29.97F
GALLIANO*      CLOUDY    72  70  94 CALM      29.93F FOG
NEW ROADS*       N/A     72  69  92 CALM      29.92F
GONZALES*        N/A     72  72 100 CALM      29.91F
HAMMOND*       CLOUDY    73  66  78 NE3       29.95F
HOUMA*         CLOUDY    72  71  96 E3        29.92F
PORT FOURCHON* PTCLDY    77  72  83 CALM      29.96F

$$

MSZ070-080>082-180600-
SOUTHERN MISSISSIPPI

CITY           SKY/WX    TMP DP  RH WIND       PRES   REMARKS
MCCOMB         MOCLDY    68  67  96 CALM      29.95F
GULFPORT       MOCLDY    72  70  93 N6        29.94S
BILOXI         MOCLDY    73  73 100 N3        29.94S
PASCAGOULA     MOCLDY    71  71 100 N3        29.94S

$$

COASTAL OBSERVATIONS
LAKE AND NEARSHORE STATIONS

STATION/POSITION TIME  TEMP    WIND        PRES    WAVE
                       AIR SEA DIR/SP/G            HT/PER
                 (UTC) (F)     (DEG/KT/KT) (MB)    (FT/S)
PASCAGOULA       0400   74     220/  8/ 10 1013.2
WAVELAND YACHT   0406   74 74  250/  4/  5 1013.9
GRAND ISLE       0412   75 76  150/  1/  3 1013.6
SOUTHWEST PASS   0412   71 63  100/  6/  8 1014.2
NEW CANAL        0406   76     230/  2/  2 1014.6
SHELL BEACH      0400   74 76  200/  4/  4 1013.5

OFFSHORE STATIONS

STATION/POSITION TIME  TEMP    WIND        PRES    WAVE
                       AIR SEA DIR/SP/G            HT/PER
                 (UTC) (F)     (DEG/KT/KT) (MB)    (FT/S)
64 S DAUPHIN ISL 0450   74 73  170/  4/  4 1014.1    3/ 5

$$




USA.gov is the U.S. government's official web portal to all federal, state and local government web resources and services.